Wind_Speed
18 18 17 17 16 16 18 18 19 19 20 19 16 15 12 14 12 11 7 9 6 5 24 18 18 18 7 5 2 6 1 4 2 0 3 4 3 6 2 4 2 4 3 3 4 2 2 4 10 3 5 8 9 25
19 18 17 17 17 18 18 18 19 19 20 18 14 14 13 14 13 11 8 7 10 13 17 13 11 12 2 6 5 2 3 3 2 3 1 0 3 4 6 3 7 1 3 1 6 6 12 7 5 2 12 14 11 15
18 16 17 17 17 18 18 18 18 18 19 14 13 12 13 14 14 13 11 2 4 10 17 21 15 4 5 2 3 5 6 7 8 3 2 2 3 2 2 5 2 4 4 5 5 3 8 6 8 15 14 11 11 10
18 17 17 17 18 18 18 18 18 17 13 12 10 10 13 14 14 14 13 9 3 6 5 8 12 22 14 15 10 8 5 1 5 3 2 2 2 1 1 2 4 4 3 2 4 9 12 9 9 7 8 8 8 7
19 17 17 17 17 17 18 17 19 12 9 8 9 9 12 13 13 13 14 16 8 2 5 14 19 13 24 15 8 6 6 2 3 4 2 3 2 2 1 3 3 3 4 3 3 16 10 15 13 12 10 3 6 7
20 16 16 16 16 16 16 14 13 7 7 9 8 9 10 12 11 6 2 9 15 10 5 3 6 10 15 15 10 7 6 6 10 4 5 3 4 3 2 1 8 4 6 12 8 11 11 11 13 10 8 6 7 7
17 15 16 16 15 15 15 11 9 8 7 8 6 8 10 11 13 11 4 5 15 12 4 5 4 9 17 16 14 10 9 7 9 13 4 2 3 3 2 2 6 2 8 11 11 13 10 14 14 10 7 11 11 7
16 16 16 14 14 13 13 8 8 9 8 7 4 7 8 10 12 17 5 4 13 11 4 3 3 1 8 5 8 14 10 8 4 2 5 4 5 3 1 6 7 3 11 9 7 6 5 6 11 10 8 11 7 4
16 15 13 12 11 11 10 7 9 10 11 7 6 6 6 6 6 7 9 4 6 9 3 4 2 3 23 20 15 11 9 3 8 5 5 2 2 3 5 3 4 8 8 6 6 5 6 4 12 15 11 8 4 6
13 12 12 11 9 9 9 6 7 3 3 9 11 3 3 5 4 9 7 4 5 6 6 5 6 2 1 4 8 6 8 3 1 4 4 3 3 8 11 9 5 4 7 7 10 8 8 3 18 17 15 12 8 12
12 11 11 9 8 8 8 6 4 3 6 11 3 2 2 12 7 4 5 6 8 4 7 10 13 3 4 3 1 6 1 2 1 4 4 3 3 5 14 11 13 9 5 7 6 11 9 12 18 16 14 13 12 10
11 9 8 7 8 7 8 6 6 7 11 5 3 2 9 5 5 4 4 5 6 5 8 20 10 8 5 3 2 5 4 1 3 5 4 3 4 12 14 12 10 13 13 10 12 12 11 15 18 18 18 13 8 10
8 8 7 7 7 5 5 5 8 10 12 5 1 1 1 3 2 5 6 3 4 6 10 15 7 7 8 5 4 3 4 5 12 3 3 4 8 23 19 15 12 11 12 10 14 15 16 19 19 17 16 16 15 13
9 8 7 6 6 4 2 3 6 11 14 3 3 2 4 4 5 5 5 5 14 8 15 19 18 9 7 6 13 3 5 5 5 7 5 5 24 24 21 17 15 14 13 12 14 19 22 21 20 20 18 13 11 8
8 8 8 5 7 6 2 2 7 16 7 3 4 4 6 11 13 13 10 10 12 12 8 10 4 7 2 2 3 2 3 5 4 5 4 19 30 27 22 19 18 17 17 18 23 27 27 23 22 16 13 11 11 8
8 8 8 4 9 7 3 2 12 6 5 3 5 5 10 10 10 11 4 16 10 6 10 10 2 3 2 0 2 5 4 3 3 3 14 29 30 24 22 21 20 20 21 28 29 26 21 18 17 16 13 7 5 5
8 5 5 5 10 8 4 9 7 4 4 4 7 15 16 12 12 17 13 13 5 2 2 3 2 3 3 2 4 3 5 6 13 22 19 25 23 23 21 20 20 22 25 25 23 20 17 12 11 12 11 9 9 10
7 5 5 7 17 12 12 6 4 8 9 13 8 13 17 13 17 11 12 10 8 6 4 4 4 3 3 4 3 5 7 18 25 24 23 20 19 19 21 20 25 26 25 22 21 20 17 14 16 15 14 13 11 8
6 5 4 12 18 10 5 5 6 5 11 12 20 18 19 26 29 25 10 10 6 5 15 8 5 4 5 12 6 13 12 14 31 21 16 13 13 17 20 21 23 24 22 19 21 21 20 20 17 14 15 13 16 16
7 6 7 15 19 6 3 5 5 6 5 7 14 17 19 13 10 17 19 17 20 9 6 3 4 7 6 14 14 8 9 9 20 21 19 18 18 22 22 23 24 21 21 23 22 17 16 16 16 14 18 14 10 12
5 7 9 16 13 6 4 4 6 8 8 7 12 11 8 8 10 13 10 26 14 8 7 15 15 16 14 18 11 7 11 7 19 29 28 26 24 22 24 24 21 22 20 18 17 19 18 20 14 16 18 18 16 13
2 8 6 16 4 5 7 8 7 8 5 10 14 9 5 6 10 14 13 5 5 11 17 17 21 23 17 6 14 15 18 6 7 15 26 25 26 27 29 27 26 23 22 21 19 20 19 17 14 19 19 14 14 14
7 9 4 8 5 5 8 6 5 5 3 4 5 8 4 4 6 10 4 7 15 18 17 14 10 16 21 16 17 21 23 16 17 8 13 21 20 23 29 29 27 25 23 22 20 21 24 20 17 19 17 15 16 15
4 2 4 6 9 5 5 5 6 4 4 6 3 3 3 4 3 1 4 10 16 18 21 22 20 18 14 14 18 13 18 22 16 12 15 22 23 25 27 25 27 23 22 19 22 19 24 20 22 19 20 17 15 16
3 4 4 4 5 5 4 4 4 5 4 4 3 3 2 4 2 4 3 2 2 5 9 12 13 17 18 17 14 21 23 22 20 15 21 25 26 23 24 23 22 23 22 20 22 20 21 19 21 21 17 16 15 14
3 4 5 4 5 4 3 3 3 5 4 3 2 2 1 1 3 0 3 12 6 5 5 7 10 17 14 12 9 14 14 12 21 19 22 27 24 25 28 27 23 21 19 21 22 22 18 20 21 19 19 19 17 13
3 5 10 8 7 2 4 7 4 2 2 3 2 3 2 2 4 3 5 6 8 10 5 13 19 15 15 7 15 21 13 10 12 14 18 24 19 22 25 27 24 23 20 23 20 19 19 21 19 16 16 18 17 13
7 5 5 6 8 7 4 3 1 3 2 2 3 2 3 2 1 4 3 8 10 10 15 12 11 6 6 7 7 7 8 8 10 11 17 17 11 14 21 18 16 12 19 21 22 20 20 20 19 18 16 18 16 19
7 6 10 11 8 5 1 3 1 3 2 1 3 2 4 4 7 5 6 13 11 4 8 7 10 4 3 3 5 7 9 10 11 14 14 17 17 15 16 16 18 17 16 22 22 21 21 21 19 19 17 17 15 14
12 11 9 8 3 1 6 3 3 7 5 4 5 9 3 9 2 8 8 11 9 7 10 9 7 4 3 4 2 7 7 10 12 15 16 13 11 13 11 14 14 14 22 20 21 20 19 20 18 17 18 17 17 14
5 6 5 8 3 7 11 13 13 7 5 7 15 16 16 3 10 17 16 13 12 12 7 8 8 7 2 3 3 11 17 14 14 16 18 8 12 11 10 16 17 22 21 21 19 21 19 19 17 16 14 14 15 16
8 7 5 5 9 9 9 6 9 13 7 4 5 11 5 3 4 6 12 13 13 11 10 7 8 10 8 7 8 8 10 9 7 4 7 4 15 16 13 16 18 19 21 19 18 17 18 17 19 19 20 19 18 17
10 8 7 8 6 4 7 4 6 6 8 10 10 10 8 8 6 5 6 14 15 11 9 8 7 8 7 5 7 9 11 9 3 7 6 10 18 16 13 12 13 12 12 14 14 15 16 19 20 21 21 20 19 18
Wind_Direction
305 309 310 306 305 305 304 303 300 300 298 297 286 268 249 238 244 250 225 209 244 274 281 292 325 342 40 16 105 159 183 237 223 86 51 167 157 202 179 237 268 149 136 189 92 89 281 336 295 243 166 69 62 111
302 308 309 310 310 310 307 304 301 300 300 295 283 263 236 225 236 244 231 194 219 240 266 285 302 332 178 43 23 318 140 173 357 36 191 294 146 161 189 237 163 81 147 105 129 209 237 201 5 96 103 70 44 56
300 302 309 312 313 310 309 307 302 301 301 295 286 256 225 216 226 235 225 185 220 263 296 272 265 281 242 206 290 320 20 14 89 71 293 286 56 93 98 293 186 120 104 131 88 247 194 170 89 80 86 73 45 44
294 297 305 306 309 312 313 310 306 301 296 295 290 252 221 218 221 232 232 197 255 293 268 277 246 263 237 237 241 238 339 5 60 16 268 283 25 9 74 179 101 131 110 84 110 178 133 136 127 108 66 52 38 39
280 289 300 303 304 310 313 311 313 294 296 295 294 244 221 217 219 227 236 210 210 284 320 299 281 237 210 213 205 205 239 274 248 220 217 258 87 69 71 66 339 25 167 140 183 161 138 153 141 133 126 123 66 54
284 274 293 298 300 308 314 314 315 292 289 306 296 228 217 222 210 198 241 227 206 228 287 289 302 190 190 196 179 201 207 239 261 282 268 123 117 119 102 247 211 126 77 106 118 139 114 142 159 148 140 149 120 98
272 277 285 288 294 305 311 310 310 297 283 298 278 211 204 213 210 184 192 171 194 197 240 271 241 210 180 194 182 206 215 252 229 260 240 115 122 100 100 177 358 93 102 125 115 118 139 143 139 152 147 152 125 133
264 275 273 278 287 303 306 288 289 285 286 287 244 209 203 209 226 221 115 133 180 185 254 269 257 319 189 175 182 213 188 222 253 269 288 109 132 165 168 247 276 166 133 130 135 138 165 145 149 161 149 129 134 156
261 256 262 270 281 302 308 292 280 273 269 262 194 182 190 205 200 241 210 223 221 199 258 246 191 191 187 224 200 192 196 189 228 193 228 162 194 192 193 225 326 166 137 141 158 177 202 211 168 147 136 124 142 159
236 246 254 260 273 292 314 289 282 287 227 162 156 155 203 199 159 168 170 203 188 212 235 248 271 197 107 194 198 187 189 236 213 218 221 153 209 147 161 185 204 117 171 181 178 182 204 166 148 145 149 150 125 107
238 246 243 249 265 288 306 283 244 183 171 154 173 235 159 158 152 200 204 202 192 225 220 225 246 162 195 141 292 12 237 195 223 221 155 207 217 225 238 214 212 215 179 192 203 175 171 175 159 141 133 142 133 130
242 246 236 238 260 284 299 268 219 193 169 182 248 212 143 185 213 224 200 206 196 213 199 193 181 141 154 225 79 103 270 225 239 192 178 219 204 180 171 176 179 204 195 194 179 156 141 156 163 159 151 140 154 158
245 240 226 239 252 276 294 268 220 203 183 192 268 160 259 244 138 220 206 203 212 221 190 183 169 146 114 189 53 203 93 247 312 205 196 207 169 163 163 165 174 174 173 187 161 155 158 158 165 157 149 155 163 151
233 223 216 244 233 229 297 306 208 178 166 217 190 178 226 223 224 212 233 227 235 292 214 191 160 148 165 149 204 214 181 177 213 184 210 176 163 163 163 166 164 167 175 180 170 165 162 152 147 151 145 149 140 146
225 213 218 236 215 208 263 327 175 167 178 220 191 220 229 243 284 284 308 268 275 231 200 176 164 109 46 298 181 182 228 214 203 198 194 172 167 162 163 169 173 178 181 178 161 153 151 154 150 145 148 147 154 160
218 216 222 213 198 201 243 245 171 153 177 232 238 252 258 272 285 272 266 273 267 256 234 173 73 104 80 155 272 220 210 226 210 108 131 154 155 158 166 171 171 171 162 157 160 162 164 168 174 170 167 180 204 176
206 187 221 214 188 181 164 144 163 195 212 233 242 235 249 279 269 271 300 321 324 167 80 57 146 92 111 213 229 234 236 234 112 124 135 152 154 162 170 171 177 174 163 162 167 172 169 179 193 200 203 173 193 181
186 204 230 206 172 171 182 199 220 209 231 230 244 241 218 227 242 267 273 223 178 93 25 330 121 172 161 250 216 237 238 134 141 151 164 162 161 166 171 181 170 165 171 177 177 174 171 181 177 174 178 187 190 195
186 203 198 181 170 161 191 226 240 262 237 240 234 245 239 239 245 244 191 173 145 173 150 202 229 200 175 243 22 26 93 145 137 145 164 175 168 170 177 186 178 176 178 178 175 171 173 182 184 188 193 202 205 211
212 221 212 185 172 169 236 251 230 265 273 261 272 258 274 272 239 219 198 171 173 164 171 166 207 228 268 273 315 314 317 109 170 180 177 192 197 186 182 179 174 175 174 173 173 178 189 193 196 201 194 198 196 194
203 189 183 181 181 215 252 240 235 251 270 272 278 307 294 262 295 284 287 179 173 207 195 226 232 213 241 279 258 306 275 247 211 165 174 178 185 186 185 185 183 181 179 187 189 190 199 194 201 205 194 183 199 184
167 166 153 180 211 226 251 237 245 312 255 258 275 272 276 268 257 260 283 274 233 228 214 224 226 200 195 172 244 225 241 235 125 155 170 178 179 191 190 185 183 187 189 191 194 198 198 196 196 202 200 215 218 195
161 165 164 190 224 231 262 239 236 229 260 282 256 231 215 224 235 263 251 253 254 256 257 260 254 190 185 192 197 220 216 219 231 196 204 195 200 198 193 194 194 191 194 197 198 200 202 201 200 202 199 199 188 202
171 214 228 207 205 253 243 222 216 242 243 240 241 236 220 214 252 286 251 245 250 249 242 246 245 249 233 226 221 203 192 197 213 227 220 190 188 199 203 198 199 198 199 198 200 200 197 192 193 198 200 200 205 206
218 240 219 263 227 228 247 214 211 210 233 218 240 238 204 189 208 225 238 238 12 312 216 232 246 231 232 236 249 231 227 220 210 229 197 196 204 201 197 198 203 208 197 195 191 187 188 190 195 200 199 196 208 216
229 225 194 239 215 212 250 266 212 220 270 235 234 322 217 217 263 281 38 343 343 349 315 274 238 228 245 254 261 270 232 214 229 229 208 209 205 199 192 198 211 194 199 196 190 185 189 191 195 200 211 218 223 237
253 247 218 235 252 296 295 283 327 307 325 23 357 314 246 239 27 42 347 8 252 338 311 277 267 212 235 231 249 254 268 241 231 209 228 203 207 208 199 201 201 193 192 186 186 188 192 193 194 198 206 214 223 231
248 281 255 266 260 248 254 264 23 353 322 10 299 288 16 42 308 275 184 210 335 326 345 23 81 180 202 221 240 224 198 185 174 175 189 191 196 181 182 193 199 190 191 186 187 191 195 199 198 203 208 217 235 218
239 267 279 262 269 256 56 64 223 240 218 176 317 39 19 315 248 266 6 359 33 151 328 226 19 353 205 181 179 186 197 201 203 183 179 164 171 179 182 198 208 200 198 206 195 198 201 200 201 201 210 218 222 229
260 241 264 281 254 18 136 136 263 236 238 161 61 31 1 326 307 13 342 2 13 91 65 62 29 355 147 128 102 170 191 169 170 182 183 177 193 204 196 179 156 167 185 198 196 191 193 195 195 198 210 219 221 235
282 296 260 266 259 262 225 236 226 187 127 193 205 216 228 282 43 42 31 21 23 13 24 33 47 41 74 207 171 151 121 128 142 135 125 87 270 246 251 221 193 182 196 202 200 206 196 194 203 212 220 230 235 235
228 237 250 266 257 274 298 254 184 173 173 220 204 202 173 160 98 47 29 30 33 35 35 39 45 51 76 94 132 148 156 158 184 255 286 289 196 156 155 170 180 187 191 195 198 195 199 208 210 216 225 233 238 236
229 223 220 262 281 237 235 242 83 78 67 68 61 61 66 82 78 68 47 23 43 49 51 58 69 87 81 113 142 150 156 156 71 164 205 129 137 144 158 192 186 177 194 204 208 213 213 215 225 234 239 240 233 238
Height
1513 1512 1509 1507 1505 1503 1501 1499 1497 1495 1493 1492 1491 1491 1491 1493 1494 1494 1495 1497 1498 1496 1486 1487 1484 1480 1480 1481 1485 1487 1489 1488 1487 1493 1505 1507 1520 1521 1518 1508 1503 1507 1523 1518 1530 1537 1529 1499 1503 1507 1502 1502 1504 1508
1509 1507 1506 1503 1501 1499 1496 1494 1493 1491 1489 1487 1486 1486 1487 1488 1491 1492 1492 1493 1494 1496 1488 1484 1483 1480 1480 1483 1485 1486 1488 1486 1487 1491 1492 1487 1494 1510 1509 1510 1493 1504 1498 1505 1512 1520 1502 1504 1504 1501 1502 1504 1507 1508
1505 1503 1502 1499 1497 1495 1492 1490 1488 1486 1484 1483 1482 1481 1483 1485 1487 1489 1490 1492 1492 1491 1486 1484 1480 1480 1480 1482 1484 1486 1488 1487 1487 1488 1488 1484 1491 1487 1498 1501 1490 1488 1489 1503 1502 1503 1502 1503 1504 1505 1506 1506 1508 1509
1500 1499 1498 1496 1494 1491 1488 1487 1484 1482 1481 1479 1478 1478 1480 1482 1484 1486 1487 1490 1490 1490 1486 1478 1479 1479 1481 1482 1483 1484 1486 1486 1487 1488 1487 1487 1490 1484 1490 1490 1491 1489 1490 1494 1498 1499 1500 1502 1505 1506 1507 1507 1509 1510
1495 1495 1493 1491 1489 1487 1485 1483 1480 1478 1478 1477 1476 1476 1478 1480 1481 1483 1484 1487 1489 1492 1487 1479 1475 1470 1476 1480 1481 1482 1485 1486 1487 1487 1487 1488 1484 1486 1485 1488 1492 1488 1491 1498 1502 1496 1497 1501 1505 1507 1509 1511 1511 1512
1490 1489 1489 1487 1486 1484 1482 1479 1477 1476 1476 1475 1473 1474 1476 1478 1480 1482 1484 1486 1488 1489 1489 1481 1473 1471 1473 1477 1479 1482 1483 1485 1485 1485 1483 1482 1484 1486 1492 1495 1486 1487 1489 1490 1494 1496 1498 1501 1504 1507 1510 1512 1512 1513
1484 1484 1484 1483 1482 1481 1479 1476 1475 1475 1474 1473 1472 1473 1475 1476 1478 1479 1480 1482 1484 1487 1488 1481 1470 1469 1472 1475 1478 1481 1482 1483 1483 1482 1480 1481 1484 1485 1488 1496 1488 1489 1490 1492 1494 1497 1500 1502 1505 1508 1510 1512 1514 1516
1479 1479 1479 1478 1478 1477 1475 1474 1473 1473 1472 1471 1471 1472 1473 1475 1478 1478 1479 1480 1483 1485 1485 1481 1471 1470 1470 1474 1477 1480 1480 1481 1481 1480 1479 1478 1482 1483 1491 1486 1486 1488 1489 1492 1495 1498 1500 1502 1504 1506 1509 1511 1514 1517
1473 1474 1474 1474 1474 1474 1472 1471 1471 1470 1469 1469 1470 1473 1474 1475 1477 1477 1479 1481 1482 1486 1481 1474 1471 1473 1473 1474 1475 1477 1478 1480 1478 1477 1478 1479 1480 1486 1482 1483 1485 1486 1489 1492 1494 1497 1499 1501 1503 1506 1509 1513 1516 1518
1467 1468 1470 1471 1471 1471 1470 1469 1469 1468 1467 1469 1472 1474 1473 1473 1475 1477 1480 1480 1480 1480 1478 1473 1469 1470 1471 1471 1472 1475 1475 1477 1478 1474 1474 1476 1479 1476 1479 1482 1484 1487 1488 1491 1493 1496 1498 1500 1502 1506 1510 1514 1516 1519
1464 1465 1466 1467 1468 1469 1468 1467 1467 1467 1469 1471 1472 1472 1472 1473 1476 1477 1476 1476 1475 1473 1469 1467 1468 1470 1471 1472 1474 1474 1471 1471 1477 1474 1475 1478 1478 1473 1475 1478 1481 1485 1488 1490 1492 1494 1497 1500 1503 1506 1511 1513 1515 1518
1461 1462 1463 1465 1466 1466 1466 1465 1466 1467 1469 1471 1471 1471 1472 1474 1474 1472 1469 1466 1464 1463 1456 1457 1463 1465 1469 1471 1474 1480 1478 1470 1476 1467 1472 1478 1469 1469 1472 1476 1479 1482 1486 1489 1490 1494 1497 1500 1502 1505 1508 1513 1516 1519
1458 1459 1461 1462 1463 1464 1464 1463 1464 1466 1469 1471 1471 1471 1470 1470 1473 1467 1461 1457 1454 1447 1447 1450 1459 1463 1470 1478 1476 1477 1482 1482 1472 1466 1470 1470 1463 1466 1469 1473 1477 1480 1484 1487 1489 1492 1496 1500 1502 1506 1510 1512 1516 1517
1456 1457 1459 1460 1461 1463 1463 1462 1463 1465 1468 1470 1471 1471 1470 1463 1457 1452 1450 1448 1447 1444 1443 1446 1452 1460 1466 1474 1473 1471 1466 1470 1467 1469 1463 1458 1461 1464 1468 1472 1476 1479 1483 1485 1487 1491 1494 1499 1503 1507 1510 1512 1514 1517
1454 1455 1457 1458 1460 1461 1462 1462 1463 1465 1468 1468 1468 1466 1457 1453 1449 1448 1447 1447 1445 1443 1444 1445 1448 1452 1458 1458 1455 1457 1457 1456 1452 1456 1453 1453 1458 1462 1466 1471 1474 1477 1481 1483 1486 1490 1494 1498 1502 1506 1509 1511 1514 1516
1452 1453 1455 1457 1459 1461 1462 1462 1463 1465 1466 1465 1464 1458 1452 1451 1448 1446 1446 1446 1444 1445 1444 1445 1448 1452 1461 1462 1461 1452 1452 1452 1448 1446 1447 1449 1456 1461 1466 1470 1473 1476 1478 1482 1486 1490 1494 1497 1501 1504 1507 1510 1513 1515
1450 1452 1454 1456 1458 1460 1461 1462 1463 1464 1464 1462 1455 1451 1451 1450 1447 1444 1445 1444 1443 1446 1447 1448 1451 1455 1460 1461 1460 1448 1446 1444 1442 1447 1452 1453 1456 1461 1466 1470 1472 1475 1478 1481 1485 1489 1493 1496 1499 1502 1506 1509 1512 1515
1450 1451 1453 1454 1456 1459 1461 1462 1462 1460 1457 1452 1450 1443 1443 1444 1442 1443 1440 1444 1443 1447 1449 1455 1454 1456 1459 1457 1447 1441 1440 1441 1442 1444 1452 1454 1456 1460 1466 1468 1470 1474 1477 1480 1483 1487 1490 1493 1497 1501 1504 1507 1510 1513
1449 1450 1452 1453 1456 1459 1461 1461 1459 1453 1445 1442 1440 1438 1440 1437 1435 1437 1438 1440 1442 1447 1450 1455 1453 1449 1451 1444 1441 1440 1440 1442 1440 1446 1451 1455 1456 1458 1465 1468 1470 1473 1476 1479 1482 1485 1488 1491 1495 1499 1501 1505 1507 1509
1448 1450 1451 1452 1456 1459 1459 1456 1455 1451 1443 1437 1436 1434 1433 1431 1431 1432 1433 1434 1442 1446 1444 1444 1443 1442 1442 1440 1439 1439 1442 1447 1445 1443 1445 1453 1459 1462 1464 1467 1469 1473 1476 1478 1481 1484 1487 1490 1494 1496 1498 1501 1503 1505
1448 1448 1450 1452 1456 1457 1456 1452 1450 1445 1440 1436 1432 1431 1430 1429 1428 1428 1428 1430 1438 1438 1438 1432 1429 1432 1437 1437 1438 1438 1436 1441 1441 1439 1444 1453 1456 1459 1463 1464 1468 1470 1473 1476 1479 1482 1484 1487 1490 1493 1495 1498 1501 1502
1447 1449 1451 1452 1454 1454 1451 1447 1444 1441 1439 1434 1431 1430 1429 1428 1428 1427 1426 1424 1424 1425 1426 1426 1426 1430 1434 1435 1436 1438 1438 1437 1441 1441 1445 1449 1453 1456 1459 1460 1462 1466 1469 1472 1476 1479 1483 1486 1488 1490 1493 1496 1497 1499
1448 1450 1451 1452 1452 1450 1445 1441 1440 1437 1434 1428 1426 1427 1426 1425 1424 1423 1422 1421 1421 1421 1421 1422 1425 1426 1429 1431 1433 1435 1436 1437 1440 1440 1443 1445 1448 1450 1453 1456 1458 1461 1465 1468 1471 1474 1478 1481 1485 1487 1489 1492 1495 1496
1449 1449 1448 1448 1448 1444 1439 1436 1434 1432 1430 1427 1424 1421 1420 1420 1421 1422 1420 1418 1417 1417 1417 1418 1421 1423 1426 1428 1429 1430 1433 1435 1436 1437 1439 1440 1443 1446 1448 1450 1454 1457 1460 1464 1467 1470 1473 1477 1481 1485 1487 1489 1492 1493
1451 1448 1447 1443 1440 1439 1431 1427 1427 1426 1423 1422 1421 1419 1419 1420 1422 1420 1414 1411 1414 1414 1413 1414 1416 1418 1419 1420 1422 1423 1425 1427 1429 1432 1432 1435 1438 1441 1445 1448 1450 1453 1456 1460 1463 1466 1470 1474 1478 1481 1484 1487 1489 1490
1447 1442 1441 1434 1430 1430 1426 1423 1420 1420 1419 1418 1418 1419 1418 1418 1417 1414 1416 1416 1414 1414 1414 1415 1414 1414 1415 1416 1415 1418 1421 1420 1427 1427 1428 1430 1431 1434 1438 1442 1445 1449 1452 1456 1459 1463 1466 1470 1473 1477 1480 1483 1485 1486
1443 1436 1433 1430 1429 1429 1429 1424 1422 1421 1419 1419 1419 1417 1416 1415 1415 1420 1418 1414 1413 1413 1414 1412 1412 1409 1411 1412 1413 1416 1417 1419 1418 1418 1427 1428 1429 1432 1434 1438 1441 1444 1447 1451 1455 1459 1463 1465 1469 1473 1477 1480 1481 1483
1436 1431 1427 1427 1425 1424 1423 1421 1422 1422 1423 1423 1423 1419 1418 1420 1422 1417 1416 1417 1416 1412 1411 1410 1411 1412 1411 1412 1413 1413 1415 1416 1418 1419 1424 1425 1430 1431 1434 1438 1440 1442 1446 1448 1451 1455 1459 1462 1465 1468 1473 1475 1477 1479
1430 1426 1425 1423 1422 1421 1420 1423 1425 1424 1425 1425 1424 1423 1424 1423 1419 1417 1417 1418 1416 1414 1411 1407 1410 1411 1412 1413 1414 1414 1415 1415 1416 1419 1422 1423 1426 1429 1430 1435 1438 1438 1446 1448 1449 1452 1455 1458 1462 1465 1469 1472 1473 1475
1425 1424 1423 1420 1419 1418 1424 1425 1422 1422 1423 1426 1427 1426 1423 1420 1421 1419 1420 1420 1419 1416 1415 1415 1415 1414 1412 1413 1414 1414 1415 1415 1417 1419 1420 1423 1426 1429 1431 1433 1433 1438 1440 1445 1448 1451 1454 1457 1459 1462 1466 1468 1469 1471
1422 1421 1420 1418 1417 1417 1415 1415 1419 1423 1424 1424 1422 1423 1423 1424 1422 1422 1422 1421 1418 1416 1416 1417 1415 1415 1413 1413 1412 1414 1414 1417 1419 1419 1421 1424 1428 1427 1427 1429 1432 1437 1441 1444 1446 1450 1452 1455 1457 1460 1463 1464 1466 1467
1421 1420 1419 1417 1415 1414 1413 1413 1416 1419 1421 1420 1419 1422 1424 1425 1426 1428 1427 1425 1422 1420 1419 1418 1417 1416 1415 1415 1414 1415 1416 1418 1419 1419 1423 1426 1421 1426 1429 1432 1434 1437 1441 1443 1444 1447 1449 1452 1455 1457 1458 1460 1461 1462
1418 1417 1418 1417 1415 1412 1410 1410 1413 1419 1421 1422 1422 1423 1424 1425 1427 1429 1428 1426 1424 1423 1421 1420 1419 1419 1418 1418 1417 1417 1418 1420 1422 1424 1426 1427 1427 1429 1433 1434 1435 1437 1439 1441 1443 1445 1446 1448 1449 1451 1452 1453 1455 1457